San Diego Business
Zip 92101 · NAICS 8121

Jurisdiction: San Diego
Source: City of San Diego, Treasurer-Tax Collector

This dataset includes 82 thousand business entities registered Business Tax Certificate wtih the City of San Diego, Treasurer-Tax Collector. Each business is registered with account number, business name, doing business as (DBA) name, location address, industry code, certificate issue date and status, etc.

92101 · NAICS 8121 · Search Result

Business Name Office Address Creation Date
Align Medical Aesthetics 2308 06th Ave, San Diego, CA 92101-1643 2020-10-26
Dermaluxe · Luxuriskin LLC 1465 C St Suite 3421, San Diego, CA 92101-5741 2020-03-02
Sip of Sun Beauty Bar · Jodene M Devan 301 W G St Suite 432, San Diego, CA 92101-6090 2020-01-31
Mindest By Mackenzie · Mackenzie R Watts 655 06th Ave Suite 516, San Diego, CA 92101-8963 2019-11-15
Lucia Arceaguilar 370 K St, #50, San Diego, CA 92101 2018-06-26
Hair Club for Men LLC 501 A St Suite 101, San Diego, CA 92101-3510 2003-02-05
Associated Barber College of San Diego 1333 05th Ave, San Diego, CA 92101-4210 2002-06-12
Ace Parking Management #1004 1010 02nd Ave, San Diego, CA 92101-4912 2002-03-21
Ace Parking Management #266 · Ace Parking Management 635 W A St, San Diego, CA 92101 2001-06-04
Ace Parking Management #254 1000 Pacific Hwy, San Diego, CA 92101 2001-06-01
Ace Parking Management #587 614 Market St, San Diego, CA 92101-7033 2001-02-05
Ace Parking Management #102 7071 Broadway, San Diego, CA 92101 2001-02-05
La Rosa Management Inc 1732 05th Ave, #8, San Diego, CA 92101 2000-09-07
Cleantouch · Clean Serv International Inc 945 Market St, San Diego, CA 92101-7231 2000-02-07
Ace Parking Management #462 550 C St, San Diego, CA 92101-5208 2000-01-13
Ace Parking Management #108 110 W A St, San Diego, CA 92101-3711 2000-01-13
Ace Parking Management #289 1200 03rd Ave, San Diego, CA 92101-4110 2000-01-13
Instant Cash · High Cotton Inc 307 W A St, San Diego, CA 92101 1999-12-27
Ace Parking Inc 645 Ash St, San Diego, CA 92101-3211 1999-03-17
Ace Parking Management 2929 Health Care Dr Suite 531, San Diego, CA 92101 1997-04-18
Ace Parking Management Inc 645 A Sh St, San Diego, CA 92101 1995-05-04
Ace Parking Management Inc 282 1220 Union St, San Diego, CA 92101-3606 1994-12-28
Ace Parking Management Inc #279 838 06th Ave, San Diego, CA 92101-6307 1994-11-30
Allright San Diego Parking · Allright Cal Inc 800 B St, San Diego, CA 92101 1994-01-10
Ace Parking Management Inc #370 · Jones S 333 W Harbor Dr, San Diego, CA 92101-7709 1993-01-20
Ace Parking Management Inc #240 · Jones S 717 06th Ave, San Diego, CA 92101 1992-08-31
Ace Parking Management Inc #356 · Jones S 751 Union St, San Diego, CA 92101 1992-08-31
Ace Parking Management Inc #241 · Jones S 780 09th Ave, San Diego, CA 92101-6412 1992-08-31
Ace Parking Mangement Inc #357 · Jones S 860 07th Ave, San Diego, CA 92101 1992-08-31
Ace Parking Management Inc #236 · Ace Parking Management Inc 148 W Cedar St, #1, San Diego, CA 92101-2905 1992-08-31
Ace Parking Management Inc #237 · Jones S 506 W Beech St, San Diego, CA 92101 1992-08-31
Ace Parking Management Inc #235 · Jones S 691 W Broadway, San Diego, CA 92101 1992-08-31
Ace Parking Management Inc #246 · Ace Parking Management Inc 1302 Columbia St, San Diego, CA 92101-3416 1992-08-31
Ace Parking Management Inc #267 · Jones S 711 05th Ave, San Diego, CA 92101 1992-08-18
Terminal Auto Parks Corp 680 01st Ave, San Diego, CA 92101 1992-03-16
Ace Parking Mgmt Inc #1089 · Ace Parking Management Inc 1069 01st Ave, San Diego, CA 92101 1991-09-16
Ace Parking Management Inc #226 · Kendrick Donna 906 G St, San Diego, CA 92101 1990-12-12
Ace Parking Management Inc #328 · Ace Parking Inc 402 W Broadway, San Diego, CA 92101-3542 1990-11-20
Ace Parking Management Inc #219 745 Market St, San Diego, CA 92101 1990-09-04
Ace Parking Management Inc #217 652 08th Ave, San Diego, CA 92101 1990-07-19
Labor Exchange The · Labor Exchange Inc The 1479 Market St, San Diego, CA 92101 1990-07-06
Ace Parking Management Inc #215 1370 07th Ave, San Diego, CA 92101 1990-06-04
Ace Parking Management Inc #316 · Ace Parking Management Inc 701 A St, San Diego, CA 92101-4611 1990-02-05
Ace Parking Management Inc #1150 · Ace Parking Management Inc 111 W Harbor Dr, San Diego, CA 92101-7822 1989-11-22
Xocherokee LLC 1041 Market St, #118, San Diego, CA 92101-7233 2020-11-16
Revolution Medical Aesthetics 2308 06th Ave, San Diego, CA 92101-1643 2019-10-01
18 8 Fine Mens Salon · 2 Crowns LLC 1980 Kettner Blvd, San Diego, CA 92101-2270 2015-06-04
Magc · Maria A Garcia & Dario G Carrero 1150 J St, #411, San Diego, CA 92101-7249 2006-12-15
Jqltalent · Mortimer Jody A 740 13th St, San Diego, CA 92101-7342 2002-04-12
Ace Parking Management #1009 · Ace Parking Management#1009 645 Ash St, San Diego, CA 92101-3211 2002-03-21
Ace Parking Management #1008 645 Ash St, San Diego, CA 92101-3211 2002-03-21
Nautical Escapes · Jad Emerging Companies 701 B St, #236, San Diego, CA 92101-8157 2001-12-28
Ace Parking Management · Ace Parking Management #448 655 06th Ave, San Diego, CA 92101-8961 2001-06-04
Ace Parking Management #463 · Ace Parking Management 645 Ash St, San Diego, CA 92101-3211 2001-06-04
Ace Parking Management #214 · Ace Parking Management 645 Ash St, San Diego, CA 92101-3211 2001-06-04
Ace Parking Management #464 · Ace Parking Management 645 Ash St, San Diego, CA 92101-3211 2001-06-04
Ace Parking Management#463 645 Ash St, San Diego, CA 92101-3211 2001-06-01
Ace Parking Management #143 645 Ash St, San Diego, CA 92101-3211 2001-06-01
Ace Parking Management #214 645 Ash St, San Diego, CA 92101-3211 2001-06-01
Ace Parking Management #448 655 06th Ave, San Diego, CA 92101-8961 2001-06-01
Ace Parking Management #266 645 Ash St, San Diego, CA 92101-3211 2001-06-01
Ace Parking Management #464 645 Ash St, San Diego, CA 92101-3211 2001-06-01
Tgc Realty Services 750 State St, #423, San Diego, CA 92101-6074 2001-05-15
Bon Vivant Personal Services 750 B St, #3160, San Diego, CA 92101-8166 2001-05-02
You & Me Latinas · Yml LLC 111 Elm St, #250, San Diego, CA 92101-2691 2001-05-01
Ace Parking Management #471 645 Ash St, San Diego, CA 92101-3211 2001-05-01
Ace Parking Management #470 645 Ash St, San Diego, CA 92101-3211 2001-04-30
Ace Parking Management #588 645 Ash St, San Diego, CA 92101-3211 2001-04-30
Ace Parking Management #590 701 05th Ave, San Diego, CA 92101-6917 2001-04-30
Ace Parking Management #21 645 Ash St, San Diego, CA 92101-3211 2000-10-18
Ace Parking Management #581 645 Ash St, San Diego, CA 92101-3211 2000-09-21
Salsa Y Fuego Productions 2420 India St, San Diego, CA 92101-1211 2000-09-05
Ace Parking Management #467 645 Ash St, San Diego, CA 92101-3211 2000-08-31
Ace Parking Management #468 645 Ash St, San Diego, CA 92101-3211 2000-08-28
Ace Parking Management #580 777 Front St, San Diego, CA 92101-6002 2000-08-28
Ace Parking Management #565 702 Ash St, San Diego, CA 92101-3228 2000-07-07
Clean Touch · Clean Serv International Inc 945 Market St, San Diego, CA 92101-7231 2000-03-24
Ace Parking Management 292 645 Ash St, San Diego, CA 92101-3211 2000-01-18
Ace Parking Management 143 645 Ash St, San Diego, CA 92101-3211 2000-01-18
My City Tour San Diego/Destination Baja · Go Bryan Go Tonk 1940 03rd Ave, #107, San Diego, CA 92101 1999-11-18
Ace Parking Management #563 645 Ash St, San Diego, CA 92101-3211 1999-07-01
Johnny Valet · Clean Serv International Inc 945 Market St, #c240, San Diego, CA 92101 1999-06-01
Ace Parking Management #409 645 Ash St, San Diego, CA 92101-3211 1999-03-31
Ace Parking Management #451 645 Ash St, San Diego, CA 92101-3211 1999-03-31
Kinetic Koncepts · Armbruster Andrew P 1915 04th Ave, #6, San Diego, CA 92101 1999-03-24
Ace Parking Management · Ace Parking Management Inc 645 Ash St, San Diego, CA 92101-3211 1999-03-17
Ace Parking Management #560 645 Ash St, San Diego, CA 92101-3211 1999-03-09
Ace Parking Management #562 645 Ash St, San Diego, CA 92101-3211 1999-03-09
Ace Parking Management #460 645 Ash St, San Diego, CA 92101-3211 1999-03-09
Ace Parking Management #541 645 Ash St, San Diego, CA 92101-3211 1999-03-09
Ace Parking Management Inc #570 · Ace Parking Management Inc 645 Ash St, San Diego, CA 92101-3211 1998-08-19
Austravel Inc 701 B St, #500, San Diego, CA 92101-8155 1998-08-14
Ace Parking Management #431 645 Ash St, San Diego, CA 92101-3211 1998-07-29
Ace Parking Management #415 645 Ash St, San Diego, CA 92101-3211 1998-07-29
Ace Parking Management Inc 645 Ash St, San Diego, CA 92101-3211 1998-03-19
Ace Parking Management Inc 645 Ash St, San Diego, CA 92101-3211 1998-03-19
Ace Parking Management Inc 645 Ash St, San Diego, CA 92101-3211 1998-03-19
Ace Parking Management Inc 645 Ash St, San Diego, CA 92101-3211 1998-03-19
Ace Parking Management Inc 434 645 Ash St, San Diego, CA 92101-3211 1998-03-05
Ace Parking Management Inc 531 2001 04th Ave, San Diego, CA 92101-2303 1998-03-05